When you browse on this site, cookies collect data to enhance your experience and personalize the content and advertising you see.
Visit our Privacy Policy to learn more. By continuing to use the site, you agree to this use of cookies and data.
  • In United Kingdom
  • List of Countries
  • For 7 days
  • Water Temperature
  • Satellite Maps
  • Weather Map
  • Weather Widgets
  • user-avatar
    Login

    Hourly Weather Luksor

    Today, 19 May, Sunday

    Time Temperature Precipitation Wind Pressure Humidity
    00:00 +33°C° 0 mm 4 mps 749 mmHg 11%
    01:00 +33°C° 0 mm 3 mps 749 mmHg 11%
    02:00 +31°C° 0 mm 2 mps 748 mmHg 13%
    03:00 +30°C° 0 mm 2 mps 749 mmHg 13%
    04:00 +30°C° 0 mm 2 mps 749 mmHg 14%
    05:00 +29°C° 0 mm 2 mps 749 mmHg 14%
    06:00 +31°C° 0 mm 3 mps 749 mmHg 13%
    07:00 +34°C° 0 mm 3 mps 749 mmHg 12%
    08:00 +36°C° 0 mm 4 mps 750 mmHg 10%
    09:00 +37°C° 0 mm 5 mps 750 mmHg 9%
    10:00 +40°C° 0 mm 5 mps 750 mmHg 8%
    11:00 +41°C° 0 mm 6 mps 749 mmHg 7%
    12:00 +41°C° 0 mm 6 mps 749 mmHg 7%
    13:00 +42°C° 0 mm 6 mps 749 mmHg 6%
    14:00 +44°C° 0 mm 6 mps 748 mmHg 6%
    15:00 +42°C° 0 mm 6 mps 748 mmHg 6%
    16:00 +42°C° 0 mm 6 mps 748 mmHg 6%
    17:00 +42°C° 0 mm 6 mps 747 mmHg 6%
    18:00 +40°C° 0 mm 6 mps 748 mmHg 7%
    19:00 +39°C° 0 mm 6 mps 748 mmHg 7%
    20:00 +38°C° 0 mm 6 mps 748 mmHg 8%
    21:00 +36°C° 0 mm 5 mps 748 mmHg 8%
    22:00 +35°C° 0 mm 5 mps 749 mmHg 8%
    23:00 +34°C° 0 mm 4 mps 749 mmHg 8%

    Tomorrow, 20 May, Monday

    Time Temperature Precipitation Wind Pressure Humidity
    00:00 +33°C° 0 mm 4 mps 749 mmHg 9%
    01:00 +31°C° 0 mm 3 mps 749 mmHg 10%
    02:00 +30°C° 0 mm 2 mps 749 mmHg 11%
    03:00 +30°C° 0 mm 2 mps 749 mmHg 12%
    04:00 +29°C° 0 mm 2 mps 749 mmHg 13%
    05:00 +28°C° 0 mm 2 mps 749 mmHg 13%
    06:00 +30°C° 0 mm 2 mps 749 mmHg 13%
    07:00 +31°C° 0 mm 2 mps 749 mmHg 12%
    08:00 +34°C° 0 mm 2 mps 750 mmHg 12%
    09:00 +34°C° 0 mm 1 mps 750 mmHg 10%
    10:00 +36°C° 0 mm 1 mps 749 mmHg 9%
    11:00 +37°C° 0 mm 1 mps 749 mmHg 8%
    12:00 +39°C° 0 mm 1 mps 749 mmHg 7%
    13:00 +40°C° 0 mm 1 mps 749 mmHg 6%
    14:00 +41°C° 0 mm 1 mps 748 mmHg 6%
    15:00 +41°C° 0 mm 1 mps 748 mmHg 6%
    16:00 +41°C° 0 mm 2 mps 748 mmHg 5%
    17:00 +41°C° 0 mm 2 mps 747 mmHg 5%
    18:00 +40°C° 0 mm 2 mps 748 mmHg 6%
    19:00 +39°C° 0 mm 1 mps 748 mmHg 7%
    20:00 +36°C° 0 mm 1 mps 748 mmHg 7%
    21:00 +35°C° 0 mm 1 mps 748 mmHg 9%
    22:00 +34°C° 0 mm 1 mps 749 mmHg 10%
    23:00 +35°C° 0 mm 2 mps 749 mmHg 11%

    Day after tomorrow, 21 May, Tuesday

    Time Temperature Precipitation Wind Pressure Humidity
    00:00 +33°C° 0 mm 1 mps 749 mmHg 12%
    01:00 +32°C° 0 mm 1 mps 749 mmHg 13%
    02:00 +31°C° 0 mm 1 mps 749 mmHg 14%
    03:00 +30°C° 0 mm 1 mps 749 mmHg 14%
    04:00 +28°C° 0 mm 0 mps 749 mmHg 15%
    05:00 +27°C° 0 mm 0 mps 749 mmHg 15%
    06:00 +29°C° 0 mm 0 mps 749 mmHg 14%
    07:00 +31°C° 0 mm 0 mps 750 mmHg 12%
    08:00 +33°C° 0 mm 0 mps 750 mmHg 10%
    09:00 +37°C° 0 mm 1 mps 750 mmHg 9%
    10:00 +40°C° 0 mm 3 mps 750 mmHg 8%
    11:00 +43°C° 0 mm 4 mps 750 mmHg 7%
    12:00 +44°C° 0 mm 4 mps 749 mmHg 6%
    13:00 +45°C° 0 mm 4 mps 749 mmHg 6%
    14:00 +47°C° 0 mm 5 mps 748 mmHg 6%
    15:00 +47°C° 0 mm 5 mps 748 mmHg 6%
    16:00 +47°C° 0 mm 6 mps 748 mmHg 6%
    17:00 +47°C° 0 mm 6 mps 748 mmHg 6%
    18:00 +45°C° 0 mm 6 mps 748 mmHg 7%
    19:00 +42°C° 0 mm 5 mps 748 mmHg 8%
    20:00 +41°C° 0 mm 5 mps 749 mmHg 10%
    21:00 +38°C° 0 mm 4 mps 749 mmHg 11%
    22:00 +37°C° 0 mm 2 mps 749 mmHg 11%
    23:00 +35°C° 0 mm 1 mps 750 mmHg 12%

    22 May, Wednesday

    Time Temperature Precipitation Wind Pressure Humidity
    00:00 +34°C° 0 mm 1 mps 749 mmHg 13%
    01:00 +34°C° 0 mm 1 mps 749 mmHg 13%
    02:00 +33°C° 0 mm 1 mps 749 mmHg 14%
    03:00 +32°C° 0 mm 1 mps 749 mmHg 15%
    04:00 +32°C° 0 mm 1 mps 750 mmHg 15%
    05:00 +31°C° 0 mm 1 mps 750 mmHg 16%
    06:00 +33°C° 0 mm 1 mps 750 mmHg 14%
    07:00 +36°C° 0 mm 1 mps 750 mmHg 11%
    08:00 +39°C° 0 mm 1 mps 751 mmHg 9%
    09:00 +41°C° 0 mm 2 mps 751 mmHg 8%
    10:00 +42°C° 0 mm 2 mps 751 mmHg 7%
    11:00 +45°C° 0 mm 3 mps 751 mmHg 5%
    12:00 +46°C° 0 mm 3 mps 750 mmHg 5%
    13:00 +47°C° 0 mm 3 mps 749 mmHg 5%
    14:00 +47°C° 0 mm 3 mps 749 mmHg 5%
    15:00 +47°C° 0 mm 3 mps 749 mmHg 5%
    16:00 +48°C° 0 mm 4 mps 748 mmHg 5%
    17:00 +48°C° 0 mm 4 mps 748 mmHg 5%
    18:00 +47°C° 0 mm 5 mps 749 mmHg 6%
    19:00 +45°C° 0 mm 5 mps 749 mmHg 7%
    20:00 +43°C° 0 mm 5 mps 749 mmHg 8%
    21:00 +41°C° 0 mm 4 mps 749 mmHg 9%
    22:00 +39°C° 0 mm 3 mps 750 mmHg 10%
    23:00 +38°C° 0 mm 2 mps 750 mmHg 12%

    23 May, Thursday

    Time Temperature Precipitation Wind Pressure Humidity
    00:00 +36°C° 0 mm 1 mps 749 mmHg 12%
    01:00 +35°C° 0 mm 1 mps 749 mmHg 13%
    02:00 +32°C° 0 mm 0 mps 749 mmHg 13%
    03:00 +31°C° 0 mm 0 mps 749 mmHg 14%
    04:00 +31°C° 0 mm 0 mps 749 mmHg 14%
    05:00 +30°C° 0 mm 0 mps 749 mmHg 14%
    06:00 +35°C° 0 mm 1 mps 749 mmHg 12%
    07:00 +37°C° 0 mm 1 mps 750 mmHg 10%
    08:00 +41°C° 0 mm 1 mps 750 mmHg 8%
    09:00 +42°C° 0 mm 2 mps 750 mmHg 8%
    10:00 +45°C° 0 mm 3 mps 749 mmHg 7%
    11:00 +46°C° 0 mm 3 mps 749 mmHg 6%
    12:00 +47°C° 0 mm 3 mps 749 mmHg 6%
    13:00 +47°C° 0 mm 3 mps 748 mmHg 6%
    14:00 +48°C° 0 mm 2 mps 747 mmHg 5%
    15:00 +48°C° 0 mm 3 mps 747 mmHg 5%
    16:00 +48°C° 0 mm 3 mps 747 mmHg 5%
    17:00 +48°C° 0 mm 3 mps 747 mmHg 5%
    18:00 +48°C° 0 mm 4 mps 747 mmHg 6%
    19:00 +45°C° 0 mm 4 mps 748 mmHg 7%
    20:00 +45°C° 0 mm 5 mps 748 mmHg 8%
    21:00 +43°C° 0 mm 4 mps 748 mmHg 9%
    22:00 +42°C° 0 mm 3 mps 748 mmHg 10%
    23:00 +40°C° 0 mm 2 mps 748 mmHg 11%

    24 May, Friday

    Time Temperature Precipitation Wind Pressure Humidity
    00:00 +39°C° 0 mm 2 mps 748 mmHg 11%
    01:00 +38°C° 0 mm 2 mps 748 mmHg 12%
    02:00 +36°C° 0 mm 1 mps 747 mmHg 12%
    03:00 +36°C° 0 mm 1 mps 748 mmHg 13%
    04:00 +35°C° 0 mm 1 mps 748 mmHg 13%
    05:00 +34°C° 0 mm 1 mps 748 mmHg 14%
    06:00 +37°C° 0 mm 1 mps 748 mmHg 12%
    07:00 +40°C° 0 mm 1 mps 749 mmHg 11%
    08:00 +42°C° 0 mm 2 mps 749 mmHg 9%
    09:00 +45°C° 0 mm 3 mps 749 mmHg 9%
    10:00 +47°C° 0 mm 4 mps 749 mmHg 8%
    11:00 +49°C° 0 mm 5 mps 748 mmHg 8%
    12:00 +49°C° 0 mm 5 mps 748 mmHg 7%
    13:00 +50°C° 0 mm 5 mps 747 mmHg 7%
    14:00 +50°C° 0 mm 5 mps 747 mmHg 7%
    15:00 +50°C° 0 mm 5 mps 746 mmHg 7%
    16:00 +50°C° 0 mm 4 mps 746 mmHg 7%
    17:00 +50°C° 0 mm 4 mps 746 mmHg 7%
    18:00 +47°C° 0 mm 3 mps 746 mmHg 8%
    19:00 +46°C° 0 mm 2 mps 747 mmHg 9%
    20:00 +43°C° 0 mm 1 mps 747 mmHg 10%
    21:00 +43°C° 0 mm 1 mps 747 mmHg 10%
    22:00 +43°C° 0 mm 2 mps 747 mmHg 10%
    23:00 +43°C° 0 mm 2 mps 747 mmHg 10%
    Show more